Time,TemperatureF,DewpointF,PressureIn,WindDirection,WindDirectionDegrees,WindSpeedMPH,WindSpeedGustMPH,Humidity,HourlyPrecipIn,Conditions,Clouds,dailyrainin,SoftwareType,DateUTC
2013-05-03 00:01:00,43.0,35.0,-100.00,North,-999,-999.0,-999.0,73,-99.99,,,-99.99,,2013-05-03 07:01:00,
2013-05-03 00:11:00,43.0,35.0,-100.00,North,-999,-999.0,-999.0,73,-99.99,,,-99.99,,2013-05-03 07:11:00,
2013-05-03 00:22:00,42.0,-99.9,-100.00,North,-999,-999.0,-999.0,-999,-99.99,,,-99.99,,2013-05-03 07:22:00,
2013-05-03 00:31:00,43.0,37.0,-100.00,North,-999,-999.0,-999.0,78,-99.99,,,-99.99,,2013-05-03 07:31:00,
2013-05-03 00:42:00,43.0,37.0,-100.00,North,-999,-999.0,-999.0,78,-99.99,,,-99.99,,2013-05-03 07:42:00,
2013-05-03 00:52:00,42.0,35.0,-100.00,North,-999,-999.0,-999.0,75,-99.99,,,-99.99,,2013-05-03 07:52:00,
2013-05-03 01:01:00,42.0,35.0,-100.00,North,-999,-999.0,-999.0,75,-99.99,,,-99.99,,2013-05-03 08:01:00,
2013-05-03 01:11:00,42.0,35.0,-100.00,North,-999,-999.0,-999.0,75,-99.99,,,-99.99,,2013-05-03 08:11:00,
2013-05-03 01:21:00,41.0,34.0,-100.00,North,-999,-999.0,-999.0,76,-99.99,,,-99.99,,2013-05-03 08:21:00,
2013-05-03 01:31:00,41.0,34.0,-100.00,North,-999,-999.0,-999.0,76,-99.99,,,-99.99,,2013-05-03 08:31:00,
2013-05-03 01:42:00,40.0,35.0,-100.00,North,-999,-999.0,-999.0,83,-99.99,,,-99.99,,2013-05-03 08:42:00,
2013-05-03 01:52:00,40.0,35.0,-100.00,North,-999,-999.0,-999.0,83,-99.99,,,-99.99,,2013-05-03 08:52:00,
2013-05-03 02:01:00,40.0,36.0,-100.00,North,-999,-999.0,-999.0,85,-99.99,,,-99.99,,2013-05-03 09:01:00,
2013-05-03 02:11:00,40.0,36.0,-100.00,North,-999,-999.0,-999.0,84,-99.99,,,-99.99,,2013-05-03 09:11:00,
2013-05-03 02:21:00,40.0,36.0,-100.00,North,-999,-999.0,-999.0,84,-99.99,,,-99.99,,2013-05-03 09:21:00,
2013-05-03 02:32:00,40.0,36.0,-100.00,North,-999,-999.0,-999.0,84,-99.99,,,-99.99,,2013-05-03 09:32:00,
2013-05-03 02:42:00,40.0,34.0,-100.00,West,260,0.0,-999.0,80,-99.99,,,-99.99,,2013-05-03 09:42:00,
2013-05-03 02:53:00,40.0,34.0,-100.00,West,260,0.0,-999.0,80,-99.99,,,-99.99,,2013-05-03 09:53:00,
2013-05-03 03:02:00,38.0,32.0,-100.00,North,-999,-999.0,-999.0,77,-99.99,,,-99.99,,2013-05-03 10:02:00,
2013-05-03 03:12:00,39.0,33.0,-100.00,North,-999,-999.0,-999.0,78,-99.99,,,-99.99,,2013-05-03 10:12:00,
2013-05-03 03:22:00,39.0,33.0,-100.00,North,-999,-999.0,-999.0,78,-99.99,,,-99.99,,2013-05-03 10:22:00,
2013-05-03 03:32:00,38.0,-99.9,-100.00,North,-999,-999.0,-999.0,-999,-99.99,,,-99.99,,2013-05-03 10:32:00,
2013-05-03 03:42:00,38.0,32.0,-100.00,North,-999,-999.0,-999.0,79,-99.99,,,-99.99,,2013-05-03 10:42:00,
2013-05-03 03:52:00,38.0,32.0,-100.00,North,-999,-999.0,-999.0,79,-99.99,,,-99.99,,2013-05-03 10:52:00,
2013-05-03 04:02:00,38.0,33.0,-100.00,North,-999,-999.0,-999.0,80,-99.99,,,-99.99,,2013-05-03 11:02:00,
2013-05-03 04:11:00,39.0,-99.9,-100.00,North,-999,-999.0,-999.0,-999,-99.99,,,-99.99,,2013-05-03 11:11:00,
2013-05-03 04:22:00,38.0,33.0,-100.00,North,-999,-999.0,-999.0,81,-99.99,,,-99.99,,2013-05-03 11:22:00,
2013-05-03 04:31:00,38.0,33.0,-100.00,North,-999,-999.0,-999.0,81,-99.99,,,-99.99,,2013-05-03 11:31:00,
2013-05-03 04:42:00,38.0,33.0,-100.00,North,-999,-999.0,-999.0,81,-99.99,,,-99.99,,2013-05-03 11:42:00,
2013-05-03 04:51:00,37.0,34.0,-100.00,North,-999,-999.0,-999.0,87,-99.99,,,-99.99,,2013-05-03 11:51:00,
2013-05-03 05:01:00,37.0,34.0,-100.00,North,-999,-999.0,-999.0,87,-99.99,,,-99.99,,2013-05-03 12:01:00,
2013-05-03 05:11:00,37.0,34.0,-100.00,North,-999,-999.0,-999.0,90,-99.99,,,-99.99,,2013-05-03 12:11:00,
2013-05-03 05:21:00,38.0,36.0,-100.00,North,-999,-999.0,-999.0,90,-99.99,,,-99.99,,2013-05-03 12:21:00,
2013-05-03 05:32:00,38.0,36.0,-100.00,North,-999,-999.0,-999.0,90,-99.99,,,-99.99,,2013-05-03 12:32:00,
2013-05-03 05:41:00,38.0,36.0,-100.00,North,-999,-999.0,-999.0,90,-99.99,,,-99.99,,2013-05-03 12:41:00,
2013-05-03 05:51:00,38.0,36.0,-100.00,North,-999,-999.0,-999.0,90,-99.99,,,-99.99,,2013-05-03 12:51:00,
2013-05-03 06:11:00,37.0,36.0,-100.00,North,-999,-999.0,-999.0,98,-99.99,,,-99.99,,2013-05-03 13:11:00,
2013-05-03 06:22:00,36.0,36.0,-100.00,North,-999,-999.0,-999.0,99,-99.99,,,-99.99,,2013-05-03 13:22:00,
2013-05-03 06:32:00,36.0,36.0,-100.00,North,-999,-999.0,-999.0,99,-99.99,,,-99.99,,2013-05-03 13:32:00,
2013-05-03 06:42:00,35.0,35.0,-100.00,North,-999,-999.0,-999.0,99,-99.99,,,-99.99,,2013-05-03 13:42:00,
2013-05-03 06:52:00,36.0,36.0,-100.00,North,-999,-999.0,-999.0,99,-99.99,,,-99.99,,2013-05-03 13:52:00,
2013-05-03 07:01:00,37.0,37.0,-100.00,North,-999,-999.0,-999.0,99,-99.99,,,-99.99,,2013-05-03 14:01:00,
2013-05-03 07:21:00,37.0,37.0,-100.00,North,-999,-999.0,-999.0,99,-99.99,,,-99.99,,2013-05-03 14:21:00,
2013-05-03 07:32:00,37.0,-99.9,-100.00,North,-999,-999.0,-999.0,-999,-99.99,,,-99.99,,2013-05-03 14:32:00,
2013-05-03 07:42:00,37.0,-99.9,-100.00,North,-999,-999.0,-999.0,-999,-99.99,,,-99.99,,2013-05-03 14:42:00,
2013-05-03 07:52:00,39.0,39.0,-100.00,North,-999,-999.0,-999.0,99,-99.99,,,-99.99,,2013-05-03 14:52:00,
2013-05-03 08:01:00,39.0,39.0,-100.00,North,-999,-999.0,-999.0,99,-99.99,,,-99.99,,2013-05-03 15:01:00,
2013-05-03 08:33:00,44.0,-99.9,-100.00,North,-999,-999.0,-999.0,-999,-99.99,,,-99.99,,2013-05-03 15:33:00,
2013-05-03 08:43:00,-999.0,-99.9,-100.00,West,260,0.0,-999.0,-999,-99.99,,,-99.99,,2013-05-03 15:43:00,
2013-05-03 08:53:00,45.0,45.0,-100.00,North,-999,-999.0,-999.0,99,-99.99,,,-99.99,,2013-05-03 15:53:00,
2013-05-03 09:03:00,46.0,46.0,-100.00,North,-999,-999.0,-999.0,99,-99.99,,,-99.99,,2013-05-03 16:03:00,
2013-05-03 09:23:00,-999.0,-99.9,-100.00,West,260,1.0,-999.0,99,-99.99,,,-99.99,,2013-05-03 16:23:00,
2013-05-03 09:32:00,46.0,45.0,-100.00,North,-999,-999.0,-999.0,97,-99.99,,,-99.99,,2013-05-03 16:32:00,
2013-05-03 09:42:00,-999.0,-99.9,-100.00,SSW,210,1.0,-999.0,-999,-99.99,,,-99.99,,2013-05-03 16:42:00,
2013-05-03 09:52:00,47.0,47.0,-100.00,North,-999,-999.0,-999.0,99,-99.99,,,-99.99,,2013-05-03 16:52:00,
2013-05-03 10:02:00,50.0,-99.9,-100.00,SW,220,2.0,-999.0,-999,-99.99,,,-99.99,,2013-05-03 17:02:00,
2013-05-03 10:11:00,51.0,49.0,-100.00,North,-999,-999.0,-999.0,92,-99.99,,,-99.99,,2013-05-03 17:11:00,
2013-05-03 10:23:00,-999.0,-99.9,-100.00,WSW,240,2.0,-999.0,-999,-99.99,,,-99.99,,2013-05-03 17:23:00,
2013-05-03 10:32:00,-999.0,-99.9,-100.00,WSW,240,2.0,-999.0,-999,-99.99,,,-99.99,,2013-05-03 17:32:00,
2013-05-03 10:42:00,53.0,50.0,-100.00,North,-999,-999.0,-999.0,89,-99.99,,,-99.99,,2013-05-03 17:42:00,
2013-05-03 10:52:00,-999.0,-99.9,-100.00,WSW,240,2.0,-999.0,-999,-99.99,,,-99.99,,2013-05-03 17:52:00,
2013-05-03 11:01:00,53.0,45.0,-100.00,North,-999,-999.0,-999.0,75,-99.99,,,-99.99,,2013-05-03 18:01:00,
2013-05-03 11:11:00,55.0,50.0,-100.00,WSW,240,2.0,-999.0,84,-99.99,,,-99.99,,2013-05-03 18:11:00,
2013-05-03 11:21:00,55.0,50.0,-100.00,WSW,240,2.0,-999.0,84,-99.99,,,-99.99,,2013-05-03 18:21:00,
2013-05-03 11:32:00,-999.0,-99.9,-100.00,WSW,250,2.0,-999.0,-999,-99.99,,,-99.99,,2013-05-03 18:32:00,
2013-05-03 11:42:00,57.0,50.0,-100.00,North,-999,-999.0,-999.0,76,-99.99,,,-99.99,,2013-05-03 18:42:00,
2013-05-03 11:52:00,-999.0,-99.9,-100.00,WSW,250,2.0,-999.0,-999,-99.99,,,-99.99,,2013-05-03 18:52:00,
2013-05-03 12:02:00,-999.0,-99.9,-100.00,WSW,250,2.0,-999.0,-999,-99.99,,,-99.99,,2013-05-03 19:02:00,
2013-05-03 12:11:00,57.0,-99.9,-100.00,North,-999,-999.0,-999.0,-999,-99.99,,,-99.99,,2013-05-03 19:11:00,
2013-05-03 12:22:00,57.0,-99.9,-100.00,North,-999,-999.0,-999.0,-999,-99.99,,,-99.99,,2013-05-03 19:22:00,
2013-05-03 12:32:00,-999.0,-99.9,-100.00,WSW,250,2.0,-999.0,-999,-99.99,,,-99.99,,2013-05-03 19:32:00,
2013-05-03 12:42:00,-999.0,-99.9,-100.00,WSW,250,2.0,-999.0,-999,-99.99,,,-99.99,,2013-05-03 19:42:00,
2013-05-03 12:52:00,57.0,48.0,-100.00,North,-999,-999.0,-999.0,73,-99.99,,,-99.99,,2013-05-03 19:52:00,
2013-05-03 13:02:00,57.0,48.0,-100.00,North,-999,-999.0,-999.0,73,-99.99,,,-99.99,,2013-05-03 20:02:00,
2013-05-03 13:11:00,59.0,51.0,-100.00,West,280,2.0,-999.0,75,-99.99,,,-99.99,,2013-05-03 20:11:00,
2013-05-03 13:21:00,60.0,50.0,-100.00,North,-999,-999.0,-999.0,70,-99.99,,,-99.99,,2013-05-03 20:21:00,
2013-05-03 13:42:00,59.0,-99.9,-100.00,North,-999,-999.0,-999.0,-999,-99.99,,,-99.99,,2013-05-03 20:42:00,
2013-05-03 13:52:00,60.0,48.0,-100.00,North,-999,-999.0,-999.0,65,-99.99,,,-99.99,,2013-05-03 20:52:00,
2013-05-03 14:01:00,60.0,48.0,-100.00,North,-999,-999.0,-999.0,65,-99.99,,,-99.99,,2013-05-03 21:01:00,
2013-05-03 14:11:00,62.0,52.0,-100.00,North,-999,-999.0,-999.0,69,-99.99,,,-99.99,,2013-05-03 21:11:00,
2013-05-03 14:21:00,65.0,48.0,-100.00,North,-999,-999.0,-999.0,53,-99.99,,,-99.99,,2013-05-03 21:21:00,
2013-05-03 14:33:00,67.0,43.0,-100.00,West,280,3.0,-999.0,41,-99.99,,,-99.99,,2013-05-03 21:33:00,
2013-05-03 14:52:00,66.0,49.0,-100.00,WNW,290,4.0,-999.0,54,-99.99,,,-99.99,,2013-05-03 21:52:00,
2013-05-03 15:03:00,-999.0,-99.9,-100.00,WNW,290,3.0,-999.0,-999,-99.99,,,-99.99,,2013-05-03 22:03:00,
2013-05-03 15:13:00,-999.0,-99.9,-100.00,WNW,290,3.0,-999.0,-999,-99.99,,,-99.99,,2013-05-03 22:13:00,
2013-05-03 15:22:00,70.0,38.0,-100.00,North,-999,-999.0,-999.0,31,-99.99,,,-99.99,,2013-05-03 22:22:00,
2013-05-03 15:32:00,70.0,38.0,-100.00,North,-999,-999.0,-999.0,31,-99.99,,,-99.99,,2013-05-03 22:32:00,
2013-05-03 15:42:00,-999.0,-99.9,-100.00,WNW,290,3.0,-999.0,-999,-99.99,,,-99.99,,2013-05-03 22:42:00,
2013-05-03 15:52:00,-999.0,-99.9,-100.00,WNW,290,3.0,-999.0,-999,-99.99,,,-99.99,,2013-05-03 22:52:00,
2013-05-03 16:02:00,-999.0,-99.9,-100.00,WNW,290,3.0,-999.0,-999,-99.99,,,-99.99,,2013-05-03 23:02:00,
2013-05-03 16:11:00,-999.0,-99.9,-100.00,WNW,290,3.0,-999.0,-999,-99.99,,,-99.99,,2013-05-03 23:11:00,
2013-05-03 18:01:00,67.0,43.0,-100.00,North,-999,-999.0,-999.0,42,-99.99,,,-99.99,,2013-05-04 01:01:00,
2013-05-03 18:11:00,66.0,36.0,-100.00,North,-999,-999.0,-999.0,32,-99.99,,,-99.99,,2013-05-04 01:11:00,
2013-05-03 18:31:00,65.0,32.0,-100.00,North,-999,-999.0,-999.0,28,-99.99,,,-99.99,,2013-05-04 01:31:00,
2013-05-03 18:41:00,66.0,28.0,-100.00,North,-999,-999.0,-999.0,23,-99.99,,,-99.99,,2013-05-04 01:41:00,
2013-05-03 18:52:00,-999.0,-99.9,-100.00,NNW,340,2.0,-999.0,-999,-99.99,,,-99.99,,2013-05-04 01:52:00,
2013-05-03 19:02:00,66.0,-99.9,-100.00,North,-999,-999.0,-999.0,-999,-99.99,,,-99.99,,2013-05-04 02:02:00,
2013-05-03 19:11:00,64.0,27.0,-100.00,North,-999,-999.0,-999.0,25,-99.99,,,-99.99,,2013-05-04 02:11:00,
2013-05-03 19:22:00,-999.0,-99.9,-100.00,West,270,1.0,-999.0,-999,-99.99,,,-99.99,,2013-05-04 02:22:00,
2013-05-03 19:41:00,64.0,21.0,-100.00,North,-999,-999.0,-999.0,19,-99.99,,,-99.99,,2013-05-04 02:41:00,
2013-05-03 19:52:00,64.0,21.0,-100.00,North,-999,-999.0,-999.0,19,-99.99,,,-99.99,,2013-05-04 02:52:00,
2013-05-03 20:01:00,64.0,21.0,-100.00,North,-999,-999.0,-999.0,19,-99.99,,,-99.99,,2013-05-04 03:01:00,
2013-05-03 20:11:00,61.0,23.0,-100.00,North,-999,-999.0,-999.0,23,-99.99,,,-99.99,,2013-05-04 03:11:00,
2013-05-03 20:21:00,61.0,23.0,-100.00,North,-999,-999.0,-999.0,23,-99.99,,,-99.99,,2013-05-04 03:21:00,
2013-05-03 20:32:00,61.0,23.0,-100.00,North,-999,-999.0,-999.0,23,-99.99,,,-99.99,,2013-05-04 03:32:00,
2013-05-03 20:43:00,59.0,20.0,-100.00,North,-999,-999.0,-999.0,22,-99.99,,,-99.99,,2013-05-04 03:43:00,
2013-05-03 20:53:00,59.0,20.0,-100.00,North,-999,-999.0,-999.0,22,-99.99,,,-99.99,,2013-05-04 03:53:00,
2013-05-03 21:02:00,59.0,20.0,-100.00,North,-999,-999.0,-999.0,22,-99.99,,,-99.99,,2013-05-04 04:02:00,
2013-05-03 21:12:00,56.0,18.0,-100.00,North,-999,-999.0,-999.0,22,-99.99,,,-99.99,,2013-05-04 04:12:00,
2013-05-03 21:22:00,56.0,18.0,-100.00,North,-999,-999.0,-999.0,22,-99.99,,,-99.99,,2013-05-04 04:22:00,
2013-05-03 21:32:00,56.0,18.0,-100.00,North,-999,-999.0,-999.0,22,-99.99,,,-99.99,,2013-05-04 04:32:00,
2013-05-03 21:42:00,53.0,29.0,-100.00,North,-999,-999.0,-999.0,39,-99.99,,,-99.99,,2013-05-04 04:42:00,
2013-05-03 22:02:00,-999.0,-99.9,-100.00,WNW,290,0.0,-999.0,-999,-99.99,,,-99.99,,2013-05-04 05:02:00,
2013-05-03 22:12:00,-999.0,-99.9,-100.00,WNW,290,0.0,-999.0,-999,-99.99,,,-99.99,,2013-05-04 05:12:00,
2013-05-03 22:21:00,50.0,22.0,-100.00,North,-999,-999.0,-999.0,33,-99.99,,,-99.99,,2013-05-04 05:21:00,
2013-05-03 22:32:00,50.0,22.0,-100.00,North,-999,-999.0,-999.0,33,-99.99,,,-99.99,,2013-05-04 05:32:00,
2013-05-03 22:42:00,49.0,20.0,-100.00,North,-999,-999.0,-999.0,32,-99.99,,,-99.99,,2013-05-04 05:42:00,
2013-05-03 22:52:00,46.0,27.0,-100.00,North,-999,-999.0,-999.0,47,-99.99,,,-99.99,,2013-05-04 05:52:00,
2013-05-03 23:01:00,46.0,27.0,-100.00,North,-999,-999.0,-999.0,47,-99.99,,,-99.99,,2013-05-04 06:01:00,
2013-05-03 23:11:00,46.0,26.0,-100.00,North,-999,-999.0,-999.0,45,-99.99,,,-99.99,,2013-05-04 06:11:00,
2013-05-03 23:21:00,45.0,25.0,-100.00,North,-999,-999.0,-999.0,45,-99.99,,,-99.99,,2013-05-04 06:21:00,
2013-05-03 23:32:00,45.0,25.0,-100.00,North,-999,-999.0,-999.0,45,-99.99,,,-99.99,,2013-05-04 06:32:00,
2013-05-03 23:41:00,45.0,23.0,-100.00,North,-999,-999.0,-999.0,41,-99.99,,,-99.99,,2013-05-04 06:41:00,
2013-05-03 23:52:00,45.0,25.0,-100.00,North,-999,-999.0,-999.0,45,-99.99,,,-99.99,,2013-05-04 06:52:00,